User: anonymous   Login
Location: The Jewett Observatory
(46.7288°N, 117.1525°W)
Time: 02:12:44
(UTC-08:00)
Language:

Cosmos 1633 - Orbit

View from above orbital plane
View from above orbital plane
View from above satellite
View from above satellite

Ground track
Ground track

The orbit data is extracted from the following two-line orbital elements,

1 15592U 85020A   15024.84903102  .00003667  00000-0  15946-3 0  6533
2 15592 082.5405 112.0569 0016239 022.4345 116.9913 15.21832332630956
Epoch (UTC): 24 January 2015 20:22:36
Eccentricity: 0.0016239
inclination: 82.5405°
perigee height: 489 km
apogee height: 511 km
right ascension of ascending node: 112.0569°
argument of perigee: 22.4345°
revolutions per day: 15.21832332
mean anomaly at epoch: 116.9913°
orbit number at epoch: 63095

The dashed part of the orbit path shows where the satellite is in the earth's shadow,  

DLR